Regional Weather Roundup
Issued by NWS

Home | Current Version | Previous Version | Graphics & Text | Print | Product List | Glossary On
Versions: 1 2 3 4 5 6 7 8 9 10 11 12 13 14 15 16 17 18 19 20 21 22 23 24 25 26 27 28 29 30 31 32 33 34 35 36 37 38 39 40 41 42 43 44 45 46 47 48 49 50
000
ASUS43 KLMK 301910
RWRKY
KENTUCKY REGIONAL WEATHER ROUNDUP
NATIONAL WEATHER SERVICE LOUISVILLE KY
300 PM EDT TUE JUN 30 2015

NOTE "FAIR" INDICATES FEW OR NO CLOUDS BELOW 12,000 FEET
WITH NO SIGNIFICANT WEATHER AND/OR OBSTRUCTIONS TO VISIBILITY.

KYZ001>023-026-027-061>063-070>075-302000-
WESTERN AND SOUTH CENTRAL KENTUCKY

CITY           SKY/WX    TMP DP  RH WIND       PRES   REMARKS
PADUCAH        SUNNY     85  67  54 W10G17    29.89F
HENDERSON      MOSUNNY   82  66  57 W10       29.86F
OWENSBORO      MOSUNNY   85  69  58 W14       29.87F
HOPKINSVILLE   PTSUNNY   84  68  58 W14       29.89F
BOWLING GREEN  NOT AVBL
GLASGOW        TSTM      71  63  77 CALM      29.90R
$$

KYZ024-025-028>034-038-045-046-053-302000-
NORTH CENTRAL KENTUCKY

CITY           SKY/WX    TMP DP  RH WIND       PRES   REMARKS
LOUISVILLE/SDF MOSUNNY   85  64  49 SW17      29.83F
LOUISVILLE/LOU MOSUNNY   83  66  56 SW12G18   29.84F
FORT KNOX      MOSUNNY   82  67  60 W10       29.84F
$$

KYZ035>037-039>044-047>052-055>060-089>105-302000-
NORTHEAST KENTUCKY

CITY           SKY/WX    TMP DP  RH WIND       PRES   REMARKS
LEXINGTON      PTSUNNY   82  66  58 SW12      29.87F
COVINGTON      TSTM      65  61  87 SW10      29.84F
FRANKFORT      MOSUNNY   82  66  58 SW12      29.84F
$$

KYZ054-064>069-076>088-106>120-302000-
SOUTHEAST KENTUCKY

CITY           SKY/WX    TMP DP  RH WIND       PRES   REMARKS
JACKSON        PTSUNNY   76  66  71 CALM      29.90F
LONDON         LGT RAIN  75  65  70 W5        29.90F
SOMERSET       TSTM      73  68  83 W12       29.91F
MIDDLESBORO    PTSUNNY   82  68  64 S8        29.91F
MONTICELLO     MOCLDY    70  68  93 SW6       29.95S
$$




USA.gov is the U.S. government's official web portal to all federal, state and local government web resources and services.